小惑星2006 SQ372

(308933) 2006 SQ372

English version
Home page
Updated on January 23, 2012

---------------------------------------------------------------------

・ プロフィール

発見日 2006年9月27日
発見光度 22.1等
発見者 SDSS Collaboration

・ 軌道要素

The following orbital elements are taken from MPO187041

Epoch 2011 Aug. 27.0 TT = JDT 2455800.5                 MPC
M   0.06003              (2000.0)            P               Q
n   0.00003288     Peri.  122.53671     +0.75118054     +0.65252750
a 964.9002217      Node   197.42185     -0.65979821     +0.74677236
e   0.9749394      Incl.   19.44608     +0.01985248     +0.12860363
P    29973         H    8.1           G   0.15
From 65 observations at 5 oppositions, 2005-2010, mean residual 0".17.

・ 光度変化

        H = 8.1  G = 0.15

---------------------------------------------------------------------

軌道要素はMPCのEphemerides and Orbital Elementsに掲載されたものです。
光度グラフはComet for Windowsで作成したものです。

---------------------------------------------------------------------

Copyright(C) Seiichi Yoshida (comet@aerith.net). All rights reserved.